• Em Portugal
  • Lista de países
  • Para 7 dias
  • Temperatura da água
  • Mapas de satélite
  • Mapa do tempo
  • Widgets de tempo
  • user-avatar
    Iniciar Sessão

    Previsão horária em Rundu

    Hoje, 19 Julho, Quinta-feira

    Tempo Temperatura Precipitação Vento Pressão Humidade
    00:00 +12°C° 0 mm 2 m/s 672 mmHg 62%
    01:00 +10°C° 0 mm 2 m/s 672 mmHg 64%
    02:00 +10°C° 0 mm 2 m/s 672 mmHg 65%
    03:00 +10°C° 0 mm 2 m/s 672 mmHg 66%
    04:00 +9°C° 0 mm 2 m/s 672 mmHg 68%
    05:00 +9°C° 0 mm 2 m/s 672 mmHg 66%
    06:00 +10°C° 0 mm 2 m/s 672 mmHg 65%
    07:00 +10°C° 0 mm 2 m/s 672 mmHg 64%
    08:00 +13°C° 0 mm 3 m/s 673 mmHg 55%
    09:00 +17°C° 0 mm 4 m/s 674 mmHg 45%
    10:00 +20°C° 0 mm 5 m/s 674 mmHg 36%
    11:00 +22°C° 0 mm 5 m/s 674 mmHg 34%
    12:00 +23°C° 0 mm 4 m/s 673 mmHg 31%
    13:00 +25°C° 0 mm 4 m/s 673 mmHg 28%
    14:00 +25°C° 0 mm 4 m/s 672 mmHg 28%
    15:00 +25°C° 0 mm 3 m/s 672 mmHg 28%
    16:00 +25°C° 0 mm 3 m/s 671 mmHg 27%
    17:00 +21°C° 0 mm 3 m/s 671 mmHg 33%
    18:00 +19°C° 0 mm 2 m/s 671 mmHg 39%
    19:00 +16°C° 0 mm 2 m/s 671 mmHg 44%
    20:00 +15°C° 0 mm 2 m/s 671 mmHg 47%
    21:00 +15°C° 0 mm 2 m/s 671 mmHg 49%
    22:00 +14°C° 0 mm 2 m/s 671 mmHg 52%
    23:00 +13°C° 0 mm 2 m/s 671 mmHg 54%

    Amanhã, 20 Julho, Sexta-feira

    Tempo Temperatura Precipitação Vento Pressão Humidade
    00:00 +13°C° 0 mm 2 m/s 671 mmHg 56%
    01:00 +12°C° 0 mm 2 m/s 671 mmHg 59%
    02:00 +10°C° 0 mm 2 m/s 671 mmHg 61%
    03:00 +10°C° 0 mm 2 m/s 670 mmHg 63%
    04:00 +9°C° 0 mm 2 m/s 670 mmHg 65%
    05:00 +10°C° 0 mm 2 m/s 671 mmHg 65%
    06:00 +10°C° 0 mm 2 m/s 671 mmHg 65%
    07:00 +10°C° 0 mm 3 m/s 672 mmHg 64%
    08:00 +13°C° 0 mm 3 m/s 672 mmHg 55%
    09:00 +17°C° 0 mm 4 m/s 673 mmHg 46%
    10:00 +21°C° 0 mm 5 m/s 674 mmHg 37%
    11:00 +22°C° 0 mm 4 m/s 673 mmHg 34%
    12:00 +23°C° 0 mm 4 m/s 673 mmHg 31%
    13:00 +26°C° 0 mm 4 m/s 672 mmHg 27%
    14:00 +26°C° 0 mm 4 m/s 671 mmHg 27%
    15:00 +26°C° 0 mm 3 m/s 671 mmHg 27%
    16:00 +25°C° 0 mm 3 m/s 670 mmHg 26%
    17:00 +22°C° 0 mm 3 m/s 670 mmHg 31%
    18:00 +19°C° 0 mm 2 m/s 670 mmHg 37%
    19:00 +17°C° 0 mm 2 m/s 670 mmHg 42%
    20:00 +16°C° 0 mm 2 m/s 670 mmHg 44%
    21:00 +15°C° 0 mm 2 m/s 671 mmHg 47%
    22:00 +14°C° 0 mm 2 m/s 671 mmHg 49%
    23:00 +14°C° 0 mm 2 m/s 671 mmHg 52%

    Depois de amanhã, 21 Julho, Sábado

    Tempo Temperatura Precipitação Vento Pressão Humidade
    00:00 +13°C° 0 mm 2 m/s 671 mmHg 54%
    01:00 +12°C° 0 mm 2 m/s 671 mmHg 56%
    02:00 +12°C° 0 mm 2 m/s 670 mmHg 58%
    03:00 +10°C° 0 mm 2 m/s 670 mmHg 60%
    04:00 +10°C° 0 mm 2 m/s 670 mmHg 62%
    05:00 +10°C° 0 mm 2 m/s 670 mmHg 61%
    06:00 +10°C° 0 mm 2 m/s 671 mmHg 61%
    07:00 +10°C° 0 mm 3 m/s 671 mmHg 60%
    08:00 +14°C° 0 mm 3 m/s 672 mmHg 51%
    09:00 +19°C° 0 mm 4 m/s 673 mmHg 42%
    10:00 +22°C° 0 mm 5 m/s 674 mmHg 33%
    11:00 +25°C° 0 mm 5 m/s 673 mmHg 30%
    12:00 +26°C° 0 mm 4 m/s 673 mmHg 27%
    13:00 +27°C° 0 mm 4 m/s 672 mmHg 24%
    14:00 +27°C° 0 mm 4 m/s 672 mmHg 24%
    15:00 +27°C° 0 mm 4 m/s 671 mmHg 24%
    16:00 +27°C° 0 mm 3 m/s 671 mmHg 23%
    17:00 +24°C° 0 mm 3 m/s 671 mmHg 28%
    18:00 +20°C° 0 mm 3 m/s 671 mmHg 33%
    19:00 +18°C° 0 mm 2 m/s 671 mmHg 38%
    20:00 +17°C° 0 mm 2 m/s 671 mmHg 40%
    21:00 +16°C° 0 mm 2 m/s 672 mmHg 42%
    22:00 +15°C° 0 mm 2 m/s 672 mmHg 44%
    23:00 +14°C° 0 mm 2 m/s 672 mmHg 47%

    22 Julho, Domingo

    Tempo Temperatura Precipitação Vento Pressão Humidade
    00:00 +14°C° 0 mm 2 m/s 671 mmHg 49%
    01:00 +13°C° 0 mm 2 m/s 671 mmHg 52%
    02:00 +13°C° 0 mm 2 m/s 671 mmHg 53%
    03:00 +12°C° 0 mm 2 m/s 671 mmHg 55%
    04:00 +12°C° 0 mm 2 m/s 671 mmHg 57%
    05:00 +11°C° 0 mm 3 m/s 671 mmHg 57%
    06:00 +11°C° 0 mm 3 m/s 672 mmHg 57%
    07:00 +12°C° 0 mm 3 m/s 672 mmHg 57%
    08:00 +15°C° 0 mm 4 m/s 673 mmHg 48%
    09:00 +20°C° 0 mm 4 m/s 674 mmHg 38%
    10:00 +25°C° 0 mm 5 m/s 674 mmHg 28%
    11:00 +26°C° 0 mm 5 m/s 674 mmHg 26%
    12:00 +27°C° 0 mm 4 m/s 673 mmHg 23%
    13:00 +28°C° 0 mm 4 m/s 673 mmHg 20%
    14:00 +28°C° 0 mm 4 m/s 672 mmHg 20%
    15:00 +28°C° 0 mm 4 m/s 672 mmHg 20%
    16:00 +28°C° 0 mm 4 m/s 671 mmHg 20%
    17:00 +25°C° 0 mm 3 m/s 671 mmHg 24%
    18:00 +21°C° 0 mm 3 m/s 671 mmHg 28%
    19:00 +18°C° 0 mm 2 m/s 672 mmHg 32%
    20:00 +17°C° 0 mm 2 m/s 672 mmHg 35%
    21:00 +16°C° 0 mm 2 m/s 672 mmHg 37%
    22:00 +16°C° 0 mm 2 m/s 672 mmHg 40%
    23:00 +15°C° 0 mm 2 m/s 672 mmHg 42%

    23 Julho, Segunda-feira

    Tempo Temperatura Precipitação Vento Pressão Humidade
    00:00 +14°C° 0 mm 2 m/s 672 mmHg 45%
    01:00 +14°C° 0 mm 2 m/s 672 mmHg 47%
    02:00 +13°C° 0 mm 2 m/s 672 mmHg 49%
    03:00 +13°C° 0 mm 2 m/s 672 mmHg 52%
    04:00 +11°C° 0 mm 3 m/s 671 mmHg 54%
    05:00 +12°C° 0 mm 2 m/s 672 mmHg 55%
    06:00 +13°C° 0 mm 2 m/s 672 mmHg 55%
    07:00 +13°C° 0 mm 2 m/s 673 mmHg 56%
    08:00 +16°C° 0 mm 3 m/s 673 mmHg 47%
    09:00 +20°C° 0 mm 4 m/s 674 mmHg 38%
    10:00 +23°C° 0 mm 5 m/s 675 mmHg 29%
    11:00 +26°C° 0 mm 5 m/s 674 mmHg 26%
    12:00 +27°C° 0 mm 5 m/s 673 mmHg 23%
    13:00 +28°C° 0 mm 4 m/s 673 mmHg 20%
    14:00 +28°C° 0 mm 4 m/s 672 mmHg 20%
    15:00 +28°C° 0 mm 4 m/s 672 mmHg 21%
    16:00 +28°C° 0 mm 4 m/s 671 mmHg 21%
    17:00 +25°C° 0 mm 3 m/s 671 mmHg 27%
    18:00 +21°C° 0 mm 3 m/s 671 mmHg 32%
    19:00 +19°C° 0 mm 2 m/s 671 mmHg 38%
    20:00 +18°C° 0 mm 2 m/s 671 mmHg 41%
    21:00 +17°C° 0 mm 2 m/s 671 mmHg 44%
    22:00 +16°C° 0 mm 2 m/s 672 mmHg 47%
    23:00 +15°C° 0 mm 2 m/s 671 mmHg 50%

    24 Julho, Terça-feira

    Tempo Temperatura Precipitação Vento Pressão Humidade
    00:00 +15°C° 0 mm 2 m/s 671 mmHg 52%
    01:00 +14°C° 0 mm 2 m/s 671 mmHg 55%
    02:00 +14°C° 0 mm 2 m/s 671 mmHg 57%
    03:00 +13°C° 0 mm 2 m/s 671 mmHg 60%
    04:00 +13°C° 0 mm 2 m/s 671 mmHg 62%
    05:00 +13°C° 0 mm 2 m/s 671 mmHg 63%
    06:00 +13°C° 0 mm 2 m/s 672 mmHg 63%
    07:00 +13°C° 0 mm 2 m/s 672 mmHg 63%
    08:00 +16°C° 0 mm 3 m/s 673 mmHg 52%
    09:00 +20°C° 0 mm 4 m/s 674 mmHg 40%
    10:00 +25°C° 0 mm 5 m/s 674 mmHg 29%
    11:00 +26°C° 0 mm 4 m/s 674 mmHg 26%
    12:00 +27°C° 0 mm 4 m/s 673 mmHg 23%
    13:00 +28°C° 0 mm 4 m/s 672 mmHg 20%
    14:00 +28°C° 0 mm 4 m/s 672 mmHg 20%
    15:00 +28°C° 0 mm 4 m/s 671 mmHg 20%
    16:00 +28°C° 0 mm 4 m/s 671 mmHg 20%
    17:00 +25°C° 0 mm 3 m/s 671 mmHg 25%
    18:00 +21°C° 0 mm 2 m/s 671 mmHg 30%
    19:00 +19°C° 0 mm 2 m/s 671 mmHg 35%
    20:00 +18°C° 0 mm 2 m/s 671 mmHg 37%
    21:00 +17°C° 0 mm 2 m/s 671 mmHg 39%
    22:00 +16°C° 0 mm 2 m/s 671 mmHg 42%
    23:00 +15°C° 0 mm 2 m/s 671 mmHg 44%
    Mostrar mais